Location: downtown San Diego
(32.7310°N, 117.1990°W)
Time: 20:40:45
(UTC-08:00)

Cosmos 2369 Rocket - Pass Details

Date: 19 May 2017
Orbit: 830 x 851 km, 71.0° (Epoch: 20 November)

Event Time Altitude Azimuth Distance (km) Brightness Sun altitude
Rises 21:11:47 0° 336° (NNW) 3,394 6.5 -16.6°
Reaches altitude 10° 21:14:14 10° 335° (NNW) 2,460 5.6 -17.0°
Maximum altitude 21:19:51 71° 252° (WSW) 891 2.4 -18.0°
Enters shadow 21:23:34 22° 173° (S) 1,762 3.4 -18.6°
